Home > Weather > Sandpoint > Past weeks

Flag for USA Past Weather in Sandpoint, Idaho, USA — Yesterday and Last 2 Weeks

Now
68 °F

Sunny.


Feels Like: 68 °F
Forecast: 47 / 64 °F
Wind: 7 mph from Southwest

Location: Sandpoint Airport

Current Time: May 25, 2016 at 5:54:45 PM

Latest Report: May 25, 2016 at 5:15 PM


Visibility: 10 mi

Pressure: 29.96 "Hg (27.82 "Hg at 636m altitude)

Humidity: 46%

Dew Point: 46 °F

Location of SandpointLocation

Past Weather in Sandpoint — Graph

°F

Sandpoint Temperature Yesterday

Maximum temperature yesterday: 63 °F (at 1:15 PM)
Minimum temperature yesterday: 45 °F (at 11:15 PM)
Average temperature yesterday: 53 °F

High & Low Weather Summary for the Past Weeks

 TemperatureHumidityPressure
High77 °F (May 18, 1:55 PM)100% (May 10, 8:35 PM)30.28 "Hg (May 10, 8:35 PM)
Low34 °F (May 20, 2:55 AM)26% (May 14, 2:15 PM)29.66 "Hg (May 20, 3:55 PM)
Average54 °F68%29.94 "Hg
* Reported May 10 4:15 PM — May 25 4:35 PM, Sandpoint, Weather by CustomWeather, © 2016

Note: Actual official high and low records may vary slightly from our data, if they occured in-between our weather recording intervals... More about our weather records

Advertising

Sandpoint Weather History for the Previous 24 Hours

Scroll right to see more
 ConditionsComfort  
Time TempWeatherWind HumidityBarometerVisibility
4:35 PM
Wed, May 25
66 °FScattered clouds.10 mph56%29.96 "Hg10 mi
4:15 PM63 °FLight rain. Broken clouds.5 mph68%29.97 "Hg10 mi
3:55 PM64 °FBroken clouds.12 mph60%29.97 "Hg10 mi
3:35 PM64 °FBroken clouds.5 mph60%29.96 "Hg10 mi
3:15 PM64 °FBroken clouds.6 mph64%29.96 "Hg10 mi
2:55 PM64 °FBroken clouds.6 mph64%29.97 "Hg10 mi
2:35 PM64 °FRain. Broken clouds.6 mph56%29.98 "Hg10 mi
2:15 PM68 °FBroken clouds.8 mph49%29.97 "Hg10 mi
1:55 PM64 °FBroken clouds.9 mph52%29.97 "Hg10 mi
1:15 PM66 °FScattered clouds.6 mph60%29.98 "Hg10 mi
12:55 PM64 °FMostly cloudy.9 mph60%29.98 "Hg10 mi
12:15 PM64 °FScattered clouds.10 mph56%29.98 "Hg10 mi
11:55 AM64 °FScattered clouds.9 mph52%29.99 "Hg10 mi
11:35 AM64 °FScattered clouds.6 mph52%29.99 "Hg10 mi
11:15 AM63 °FScattered clouds.6 mph64%29.99 "Hg10 mi
10:55 AM63 °FScattered clouds.10 mph56%29.99 "Hg10 mi
10:15 AM61 °FBroken clouds.10 mph63%29.99 "Hg10 mi
9:55 AM59 °FScattered clouds.9 mph72%29.99 "Hg10 mi
9:35 AM55 °FScattered clouds.8 mph82%29.99 "Hg10 mi
9:15 AM55 °FScattered clouds.6 mph82%29.99 "Hg10 mi
8:55 AM54 °FBroken clouds.5 mph94%30.00 "Hg10 mi
8:35 AM52 °FScattered clouds.3 mph94%29.99 "Hg10 mi
8:15 AM50 °FBroken clouds.5 mph100%29.99 "Hg10 mi
7:55 AM46 °FMostly cloudy.No wind100%29.99 "Hg10 mi
7:35 AM46 °FLow clouds.No wind100%29.99 "Hg10 mi
7:15 AM46 °FFog.No wind100%29.99 "Hg5 mi
6:55 AM46 °FFog.No wind100%29.99 "Hg2 mi
6:15 AM45 °FFog.No wind100%29.98 "Hg0 mi
5:55 AM45 °FFog.No wind100%29.98 "Hg0 mi
5:35 AM43 °FFog.No wind100%29.98 "Hg0 mi
5:15 AM43 °FFog.No wind100%29.97 "Hg0 mi
4:55 AM43 °FFog.No wind100%29.97 "Hg0 mi
4:15 AM41 °FPassing clouds.No wind100%29.97 "Hg10 mi
3:55 AM41 °FClear.No wind100%29.96 "Hg7 mi
3:15 AM41 °FFog.No wind100%29.96 "Hg4 mi
2:55 AM43 °FClear.No wind100%29.96 "Hg7 mi
2:35 AM43 °FClear.No wind100%29.95 "Hg10 mi
2:15 AM43 °FFog.No wind100%29.95 "Hg5 mi
1:55 AM43 °FFog.No wind100%29.95 "Hg1 mi
1:15 AM45 °FClear.No wind100%29.94 "Hg10 mi
12:55 AM43 °FFog.No wind100%29.94 "Hg1 mi
12:35 AM43 °FClear.No wind100%29.94 "Hg10 mi
12:15 AM45 °FClear.No wind100%29.94 "Hg10 mi
11:55 PM
Tue, May 24
45 °FClear.No wind100%29.94 "Hg10 mi
11:35 PM45 °FClear.No wind100%29.94 "Hg7 mi
11:15 PM45 °FClear.No wind100%29.94 "Hg10 mi
10:55 PM46 °FClear.No wind100%29.94 "Hg7 mi
10:15 PM46 °FClear.No wind100%29.93 "Hg10 mi
9:55 PM48 °FClear.No wind100%29.92 "Hg10 mi
9:15 PM52 °FSunny.No wind94%29.92 "Hg10 mi
8:55 PM52 °FSunny.No wind100%29.91 "Hg10 mi
8:15 PM55 °FOvercast.No wind77%29.89 "Hg10 mi
7:55 PM55 °FPartly sunny.No wind77%29.89 "Hg10 mi
7:35 PM55 °FPartly sunny.No wind77%29.89 "Hg10 mi
7:15 PM55 °FScattered clouds.No wind77%29.89 "Hg10 mi
6:55 PM59 °FScattered clouds.No wind63%29.89 "Hg10 mi
6:35 PM59 °FPartly sunny.No wind63%29.89 "Hg10 mi
6:15 PM59 °FScattered clouds.3 mph68%29.89 "Hg10 mi
5:55 PM59 °FScattered clouds.5 mph63%29.89 "Hg10 mi
5:15 PM63 °FSunny.3 mph56%29.89 "Hg10 mi
Weather by CustomWeather, © 2016

See weather overviewHow to use our weather pages